When you browse on this site, cookies collect data to enhance your experience and personalize the content and advertising you see.
Visit our Privacy Policy to learn more. By continuing to use the site, you agree to this use of cookies and data.
  • In Latvia
  • List of Countries
  • For 7 days
  • Water Temperature
  • Satellite Maps
  • Weather Map
  • Weather Widgets
  • user-avatar
    Login

    Hourly Weather Norwich

    Today, 18 December, Tuesday

    Time Temperature Precipitation Wind Pressure Humidity
    00:00 +5°C° 0 mm 7 mps 760 mmHg 92%
    01:00 +5°C° 0 mm 7 mps 760 mmHg 91%
    02:00 +6°C° 0 mm 8 mps 759 mmHg 90%
    03:00 +6°C° 0 mm 8 mps 759 mmHg 90%
    04:00 +6°C° 0 mm 8 mps 759 mmHg 89%
    05:00 +7°C° 0 mm 8 mps 758 mmHg 88%
    06:00 +7°C° 0 mm 8 mps 758 mmHg 88%
    07:00 +7°C° 0 mm 9 mps 758 mmHg 87%
    08:00 +7°C° 0 mm 9 mps 757 mmHg 86%
    09:00 +7°C° 0 mm 10 mps 757 mmHg 85%
    10:00 +7°C° 0 mm 11 mps 756 mmHg 82%
    11:00 +7°C° 0 mm 11 mps 756 mmHg 79%
    12:00 +7°C° 0 mm 12 mps 755 mmHg 77%
    13:00 +7°C° 0.1 mm 12 mps 754 mmHg 74%
    14:00 +7°C° 0.1 mm 12 mps 754 mmHg 72%
    15:00 +7°C° 0.1 mm 12 mps 753 mmHg 70%
    16:00 +7°C° 0.2 mm 12 mps 752 mmHg 71%
    17:00 +7°C° 0.2 mm 12 mps 751 mmHg 72%
    18:00 +6°C° 0.2 mm 11 mps 751 mmHg 73%
    19:00 +6°C° 0.8 mm 11 mps 750 mmHg 77%
    20:00 +6°C° 0.8 mm 11 mps 750 mmHg 81%
    21:00 +6°C° 0.8 mm 11 mps 750 mmHg 85%
    22:00 +6°C° 0.7 mm 10 mps 750 mmHg 86%
    23:00 +6°C° 0.7 mm 9 mps 750 mmHg 88%

    Tomorrow, 19 December, Wednesday

    Time Temperature Precipitation Wind Pressure Humidity
    00:00 +6°C° 0.7 mm 7 mps 750 mmHg 90%
    01:00 +6°C° 0 mm 7 mps 750 mmHg 90%
    02:00 +5°C° 0 mm 7 mps 750 mmHg 91%
    03:00 +5°C° 0 mm 6 mps 750 mmHg 91%
    04:00 +5°C° 0 mm 6 mps 750 mmHg 90%
    05:00 +5°C° 0 mm 6 mps 750 mmHg 90%
    06:00 +5°C° 0 mm 6 mps 751 mmHg 89%
    07:00 +5°C° 0.1 mm 6 mps 751 mmHg 89%
    08:00 +5°C° 0.1 mm 7 mps 751 mmHg 89%
    09:00 +5°C° 0.1 mm 7 mps 751 mmHg 88%
    10:00 +6°C° 0.1 mm 7 mps 751 mmHg 85%
    11:00 +6°C° 0.1 mm 7 mps 751 mmHg 83%
    12:00 +8°C° 0.1 mm 7 mps 751 mmHg 80%
    13:00 +7°C° 0 mm 6 mps 751 mmHg 80%
    14:00 +7°C° 0 mm 6 mps 751 mmHg 80%
    15:00 +7°C° 0 mm 6 mps 751 mmHg 81%
    16:00 +5°C° 0 mm 6 mps 751 mmHg 82%
    17:00 +5°C° 0 mm 6 mps 751 mmHg 83%
    18:00 +4°C° 0 mm 7 mps 751 mmHg 84%
    19:00 +4°C° 0 mm 7 mps 751 mmHg 83%
    20:00 +5°C° 0 mm 7 mps 751 mmHg 83%
    21:00 +5°C° 0 mm 8 mps 751 mmHg 82%
    22:00 +5°C° 0.1 mm 8 mps 751 mmHg 83%
    23:00 +4°C° 0.1 mm 7 mps 751 mmHg 85%

    Day after tomorrow, 20 December, Thursday

    Time Temperature Precipitation Wind Pressure Humidity
    00:00 +4°C° 0.1 mm 7 mps 750 mmHg 86%
    01:00 +4°C° 0 mm 7 mps 750 mmHg 86%
    02:00 +4°C° 0 mm 7 mps 750 mmHg 86%
    03:00 +4°C° 0 mm 7 mps 750 mmHg 86%
    04:00 +3°C° 0 mm 7 mps 750 mmHg 87%
    05:00 +3°C° 0 mm 7 mps 750 mmHg 87%
    06:00 +3°C° 0 mm 7 mps 751 mmHg 88%
    07:00 +2°C° 0 mm 8 mps 751 mmHg 88%
    08:00 +4°C° 0 mm 8 mps 751 mmHg 88%
    09:00 +4°C° 0 mm 8 mps 752 mmHg 88%
    10:00 +5°C° 0 mm 8 mps 752 mmHg 85%
    11:00 +6°C° 0 mm 8 mps 752 mmHg 81%
    12:00 +7°C° 0 mm 8 mps 753 mmHg 77%
    13:00 +6°C° 0 mm 8 mps 753 mmHg 77%
    14:00 +6°C° 0 mm 8 mps 753 mmHg 78%
    15:00 +6°C° 0 mm 7 mps 753 mmHg 79%
    16:00 +6°C° 0 mm 8 mps 753 mmHg 80%
    17:00 +6°C° 0 mm 8 mps 753 mmHg 81%
    18:00 +6°C° 0 mm 8 mps 754 mmHg 82%
    19:00 +5°C° 0 mm 8 mps 754 mmHg 82%
    20:00 +5°C° 0 mm 8 mps 754 mmHg 83%
    21:00 +5°C° 0 mm 8 mps 753 mmHg 83%
    22:00 +5°C° 0.1 mm 7 mps 753 mmHg 85%
    23:00 +5°C° 0.1 mm 7 mps 752 mmHg 86%

    21 December, Friday

    Time Temperature Precipitation Wind Pressure Humidity
    00:00 +5°C° 0.1 mm 7 mps 751 mmHg 87%
    01:00 +6°C° 1.4 mm 7 mps 750 mmHg 89%
    02:00 +7°C° 1.4 mm 8 mps 748 mmHg 91%
    03:00 +9°C° 1.4 mm 8 mps 747 mmHg 93%
    04:00 +10°C° 0.5 mm 8 mps 746 mmHg 91%
    05:00 +11°C° 0.5 mm 9 mps 745 mmHg 90%
    06:00 +12°C° 0.5 mm 10 mps 744 mmHg 88%
    07:00 +11°C° 0.1 mm 10 mps 744 mmHg 85%
    08:00 +11°C° 0.1 mm 10 mps 744 mmHg 82%
    09:00 +11°C° 0.1 mm 11 mps 744 mmHg 80%
    10:00 +9°C° 0 mm 11 mps 745 mmHg 75%
    11:00 +8°C° 0 mm 12 mps 746 mmHg 71%
    12:00 +8°C° 0 mm 12 mps 747 mmHg 67%
    13:00 +7°C° 0 mm 12 mps 747 mmHg 67%
    14:00 +7°C° 0 mm 12 mps 748 mmHg 67%
    15:00 +7°C° 0 mm 11 mps 749 mmHg 67%
    16:00 +7°C° 0 mm 11 mps 749 mmHg 69%
    17:00 +6°C° 0 mm 11 mps 750 mmHg 70%
    18:00 +6°C° 0 mm 11 mps 750 mmHg 72%
    19:00 +6°C° 0 mm 11 mps 751 mmHg 76%
    20:00 +6°C° 0 mm 10 mps 751 mmHg 80%
    21:00 +7°C° 0 mm 10 mps 751 mmHg 84%
    22:00 +7°C° 0.1 mm 9 mps 751 mmHg 84%
    23:00 +7°C° 0.1 mm 9 mps 751 mmHg 84%

    22 December, Saturday

    Time Temperature Precipitation Wind Pressure Humidity
    00:00 +7°C° 0.1 mm 9 mps 751 mmHg 84%
    01:00 +7°C° 0.6 mm 9 mps 751 mmHg 84%
    02:00 +7°C° 0.6 mm 9 mps 750 mmHg 84%
    03:00 +8°C° 0.6 mm 9 mps 750 mmHg 85%
    04:00 +7°C° 0 mm 10 mps 750 mmHg 83%
    05:00 +7°C° 0 mm 10 mps 749 mmHg 82%
    06:00 +6°C° 0 mm 10 mps 749 mmHg 80%
    07:00 +6°C° 0 mm 11 mps 750 mmHg 78%
    08:00 +5°C° 0 mm 12 mps 750 mmHg 77%
    09:00 +5°C° 0 mm 12 mps 751 mmHg 75%
    10:00 +7°C° 0 mm 12 mps 752 mmHg 74%
    11:00 +7°C° 0 mm 11 mps 753 mmHg 72%
    12:00 +7°C° 0 mm 11 mps 754 mmHg 71%
    13:00 +7°C° 0 mm 10 mps 754 mmHg 73%
    14:00 +7°C° 0 mm 9 mps 755 mmHg 74%
    15:00 +7°C° 0 mm 8 mps 756 mmHg 76%
    16:00 +6°C° 0 mm 8 mps 756 mmHg 77%
    17:00 +5°C° 0 mm 8 mps 757 mmHg 79%
    18:00 +5°C° 0 mm 8 mps 758 mmHg 80%
    19:00 +4°C° 0 mm 8 mps 758 mmHg 81%
    20:00 +4°C° 0 mm 8 mps 759 mmHg 82%
    21:00 +4°C° 0 mm 8 mps 759 mmHg 82%
    22:00 +4°C° 0 mm 8 mps 760 mmHg 84%
    23:00 +4°C° 0 mm 8 mps 760 mmHg 85%

    23 December, Sunday

    Time Temperature Precipitation Wind Pressure Humidity
    00:00 +2°C° 0 mm 8 mps 760 mmHg 86%
    01:00 +3°C° 0 mm 7 mps 761 mmHg 88%
    02:00 +3°C° 0 mm 7 mps 761 mmHg 89%
    03:00 +3°C° 0 mm 7 mps 761 mmHg 91%
    04:00 +3°C° 0 mm 7 mps 761 mmHg 91%
    05:00 +3°C° 0 mm 6 mps 762 mmHg 91%
    06:00 +2°C° 0 mm 6 mps 762 mmHg 92%
    07:00 +3°C° 0 mm 6 mps 762 mmHg 92%
    08:00 +3°C° 0 mm 5 mps 762 mmHg 92%
    09:00 +3°C° 0 mm 5 mps 763 mmHg 92%
    10:00 +5°C° 0 mm 5 mps 762 mmHg 89%
    11:00 +6°C° 0 mm 5 mps 762 mmHg 87%
    12:00 +7°C° 0 mm 4 mps 762 mmHg 85%
    13:00 +7°C° 0.1 mm 5 mps 762 mmHg 87%
    14:00 +7°C° 0.1 mm 5 mps 761 mmHg 90%
    15:00 +7°C° 0.1 mm 5 mps 761 mmHg 92%
    16:00 +7°C° 0.4 mm 6 mps 760 mmHg 92%
    17:00 +6°C° 0.4 mm 7 mps 760 mmHg 91%
    18:00 +6°C° 0.4 mm 8 mps 759 mmHg 91%
    19:00 +7°C° 1.8 mm 8 mps 759 mmHg 91%
    20:00 +9°C° 1.8 mm 8 mps 758 mmHg 92%
    21:00 +10°C° 1.8 mm 8 mps 758 mmHg 92%
    22:00 +10°C° 0.3 mm 8 mps 758 mmHg 90%
    23:00 +10°C° 0.3 mm 9 mps 757 mmHg 89%
    Show more